Weather History for Minot, ND

Change the Weather History Date:

Thursday, February 14, 2013

  Actual Average Record
Temperature  
Mean Temperature 22 °F 17 °F  
Max Temperature 30 °F 25 °F 55 °F (1931)
Min Temperature 13 °F 8 °F -39 °F (1936)
Degree Days  
Heating Degree Days 43 48  
Month to date heating degree days 654 699  
Since 1 July heating degree days 6055 5931  
Moisture  
Dew Point 16 °F    
Average Humidity 86    
Maximum Humidity 100    
Minimum Humidity 71    
Precipitation  
Precipitation 0.04 in 0.01 in 0.29 in (1967)
Month to date precipitation 0.35 0.18  
Year to date precipitation 0.46 0.69  
Sea Level Pressure  
Sea Level Pressure 30.04 in    
Wind  
Wind Speed 14 mph (NNW)    
Max Wind Speed 22 mph    
Max Gust Speed 26 mph    
Visibility 5 miles    
Events Fog , Snow    
T = Trace of Precipitation, MM = Missing Value Source: NWS Daily Summary

Daily Weather History Graph

Daily Weather History Graph

Search for Another Location

Airport:

Trip Planner

Search our weather history database for the weather conditions in past years. The results will help you decide how hot, cold, wet, or windy it might be!

Date:

Astronomy

Feb. 14, 2013 Rise Set
Actual Time 7:53 AM CST 6:06 PM CST
Civil Twilight 7:20 AM CST 6:38 PM CST
Nautical Twilight 6:44 AM CST 7:14 PM CST
Astronomical Twilight 6:08 AM CST 7:51 PM CST
Moon 9:29 AM CST (2/14) 11:40 PM CST (2/14)
Length of Visible Light 11h 17m
Length of Day
10h 12m
Waxing Crescent, 22% of the Moon is Illuminated
Feb 14
Waxing Crescent
Feb 17
First Quarter
Feb 25
Full
Mar 4
Last Quarter
Mar 11
New

Hourly Weather History & Observations

Time (CST) Temp. Windchill Dew Point Humidity Pressure Visibility Wind Dir Wind Speed Gust Speed Precip Events Conditions
12:05 AM 26.6 °F 22.6 °F 26.6 °F 100% 29.71 in 0.5 mi ESE 3.5 mph - 0.02 in Fog , Snow Snow
12:21 AM 28.4 °F 18.5 °F 26.6 °F 93% 29.71 in 0.8 mi West 11.5 mph 16.1 mph 0.03 in Snow Light Snow
12:29 AM 30.2 °F 19.3 °F 28.4 °F 93% 29.71 in 0.8 mi West 15.0 mph - 0.03 in Snow Light Snow
12:48 AM 30.2 °F 18.5 °F 28.4 °F 93% 29.72 in 2.0 mi WNW 17.3 mph - 0.04 in Snow Light Snow
12:51 AM 30.2 °F 17.8 °F 28.4 °F 93% 29.72 in 3.0 mi WNW 19.6 mph - 0.04 in Snow Light Snow
12:54 AM 30.0 °F 17.9 °F 27.0 °F 88% 29.78 in 5.0 mi WNW 18.4 mph - 0.04 in Snow Light Snow
1:27 AM 30.2 °F 19.3 °F 28.4 °F 93% 29.73 in 6.0 mi WNW 15.0 mph - 0.00 in Snow Light Snow
1:48 AM 28.4 °F 22.2 °F 26.6 °F 93% 29.73 in 1.8 mi North 5.8 mph - 0.00 in Snow Light Snow
1:54 AM 27.0 °F 19.5 °F 26.1 °F 96% 29.81 in 1.2 mi North 6.9 mph - 0.00 in Snow Light Snow
2:11 AM 26.6 °F 16.8 °F 24.8 °F 93% 29.75 in 1.8 mi NNE 10.4 mph - 0.00 in Snow Light Snow
2:42 AM 24.8 °F 12.9 °F 24.8 °F 100% 29.77 in 1.2 mi NE 13.8 mph - 0.00 in Snow Light Snow
2:54 AM 25.0 °F 11.7 °F 23.0 °F 92% 29.86 in 1.2 mi NE 17.3 mph - 0.00 in Snow Light Snow
3:52 AM 24.8 °F 10.7 °F 21.2 °F 86% 29.84 in 2.0 mi NNE 19.6 mph 24.2 mph 0.00 in Snow Light Snow
3:53 AM 24.1 °F 10.6 °F 21.0 °F 88% 29.91 in 2.5 mi NE 17.3 mph 24.2 mph 0.00 in Snow Light Snow
4:10 AM 21.2 °F 7.3 °F 19.4 °F 93% 29.85 in 1.5 mi NNE 16.1 mph - 0.00 in Snow Light Snow
4:25 AM 21.2 °F 6.4 °F 17.6 °F 86% 29.87 in 1.0 mi NNE 18.4 mph - 0.00 in Snow Light Snow
4:40 AM 19.4 °F 4.1 °F 17.6 °F 93% 29.89 in 0.8 mi NNE 18.4 mph - 0.00 in Snow Light Snow
4:52 AM 19.4 °F 6.0 °F 17.6 °F 93% 29.90 in 1.2 mi NNE 13.8 mph - 0.00 in Snow Light Snow
4:54 AM 19.9 °F 7.3 °F 18.0 °F 92% 29.99 in 1.2 mi NNE 12.7 mph - 0.00 in Snow Light Snow
5:02 AM 19.4 °F 6.6 °F 17.6 °F 93% 29.91 in 1.5 mi NNE 12.7 mph - 0.00 in Snow Light Snow
5:15 AM 19.4 °F 6.6 °F 17.6 °F 93% 29.92 in 2.5 mi North 12.7 mph - 0.00 in Snow Light Snow
5:25 AM 19.4 °F 4.5 °F 17.6 °F 93% 29.93 in 2.0 mi North 17.3 mph 23.0 mph 0.01 in Snow Light Snow
5:41 AM 17.6 °F 2.2 °F 15.8 °F 93% 29.95 in 3.0 mi North 17.3 mph - 0.01 in Snow Light Snow
5:49 AM 17.6 °F 2.2 °F 15.8 °F 93% 29.96 in 1.8 mi North 17.3 mph - 0.01 in Snow Light Snow
5:54 AM 17.1 °F 1.0 °F 14.0 °F 88% 30.05 in 1.8 mi North 18.4 mph - 0.01 in Snow Light Snow
6:19 AM 15.8 °F -0.6 °F 10.4 °F 79% 29.99 in 2.0 mi North 18.4 mph 25.3 mph 0.00 in Snow Light Snow
6:30 AM 14.0 °F -3.0 °F 10.4 °F 86% 30.00 in 2.5 mi North 18.4 mph 24.2 mph 0.00 in Snow Light Snow
6:37 AM 14.0 °F -3.4 °F 10.4 °F 86% 30.01 in 3.0 mi North 19.6 mph - 0.00 in Snow Light Snow
6:43 AM 14.0 °F -2.5 °F 10.4 °F 86% 30.02 in 1.8 mi NNW 17.3 mph - 0.00 in Snow Light Snow
6:51 AM 14.0 °F -3.0 °F 10.4 °F 86% 30.02 in 1.5 mi North 18.4 mph - 0.00 in Snow Light Snow
6:54 AM 12.9 °F -4.4 °F 10.0 °F 88% 30.12 in 1.8 mi North 18.4 mph - 0.00 in Snow Light Snow
6:59 AM 12.2 °F -4.8 °F 10.4 °F 92% 30.03 in 3.0 mi NNW 17.3 mph - 0.00 in Snow Light Snow
7:31 AM 14.0 °F -2.5 °F 8.6 °F 79% 30.06 in 10.0 mi NNW 17.3 mph - 0.00 in   Overcast
7:54 AM 14.0 °F -0.8 °F 8.1 °F 77% 30.17 in 10.0 mi NNW 13.8 mph - 0.00 in   Overcast
8:54 AM 14.0 °F 1.2 °F 9.0 °F 80% 30.22 in 10.0 mi NW 10.4 mph - N/A   Overcast
9:54 AM 15.1 °F 1.1 °F 10.9 °F 84% 30.24 in 10.0 mi NNW 12.7 mph - N/A   Overcast
10:11 AM 15.8 °F 3.4 °F 10.4 °F 79% 30.16 in 10.0 mi NW 10.4 mph - N/A   Overcast
10:45 AM 15.8 °F 2.7 °F 10.4 °F 79% 30.17 in 10.0 mi NW 11.5 mph - N/A   Mostly Cloudy
10:54 AM 15.1 °F 2.5 °F 10.0 °F 80% 30.27 in 9.0 mi NW 10.4 mph - N/A   Overcast
11:09 AM 15.8 °F 2.1 °F 10.4 °F 79% 30.18 in 10.0 mi NW 12.7 mph - N/A   Overcast
11:54 AM 16.0 °F 2.3 °F 10.0 °F 77% 30.29 in 10.0 mi NW 12.7 mph - N/A   Overcast
12:26 PM 17.6 °F 5.7 °F 10.4 °F 73% 30.20 in 10.0 mi NW 10.4 mph - N/A   Overcast
12:54 PM 18.0 °F 4.8 °F 12.0 °F 78% 30.29 in 10.0 mi WNW 12.7 mph - N/A   Overcast
1:54 PM 19.0 °F 6.1 °F 12.0 °F 74% 30.28 in 10.0 mi WNW 12.7 mph - N/A   Clear
2:54 PM 21.9 °F 12.5 °F 14.0 °F 72% 30.28 in 10.0 mi WNW 8.1 mph - N/A   Mostly Cloudy
3:54 PM 23.0 °F 10.1 °F 15.1 °F 72% 30.30 in 10.0 mi WNW 15.0 mph - N/A   Overcast
4:54 PM 23.0 °F 9.6 °F 15.1 °F 72% 30.30 in 10.0 mi West 16.1 mph - N/A   Overcast
5:54 PM 23.0 °F 11.7 °F 17.1 °F 78% 30.31 in 7.0 mi West 11.5 mph - 0.00 in Snow Light Snow
6:49 PM 21.2 °F 8.3 °F 17.6 °F 86% 30.21 in 8.0 mi West 13.8 mph - 0.00 in Snow Light Snow
6:54 PM 21.0 °F 8.1 °F 17.1 °F 85% 30.32 in 9.0 mi West 13.8 mph - 0.00 in   Overcast
7:54 PM 17.1 °F 2.0 °F 12.0 °F 81% 30.32 in 10.0 mi WNW 16.1 mph - N/A   Clear
8:54 PM 15.1 °F 0.5 °F 10.0 °F 80% 30.33 in 10.0 mi West 13.8 mph - N/A   Clear
9:54 PM 15.1 °F -0.1 °F 10.0 °F 80% 30.33 in 10.0 mi WNW 15.0 mph - N/A   Mostly Cloudy
10:54 PM 12.9 °F -0.9 °F 8.1 °F 81% 30.33 in 10.0 mi West 11.5 mph - N/A   Clear
11:52 PM 12.2 °F -3.7 °F 8.6 °F 85% 30.23 in 10.0 mi WNW 15.0 mph - N/A   Overcast
11:54 PM 12.9 °F -2.2 °F 8.1 °F 81% 30.34 in 10.0 mi WNW 13.8 mph - N/A   Overcast